Weather in Novomikhaylovsky

Russia / Bryansk Oblast     52°58′25″N   33°51′34″E
temp.,
°C
wind,
m/s
gust,
m/s
humid.,
%
clouds,
%
prec.,
mm/h
press.,
hPa
HPBL,
m
12 may, wed
wed1200:00+10ese4109332 0.0 1023351
03:00+6ese411914 0.0 1024336
06:00+6e310934 0.0 1024309
09:00+11e58710 0.0 1024678
12:00+15ene5650100 0.0 10221741
15:00+15ene4656100 0.1 10191641
18:00+12ene4772100 0.4 1017617
21:00+8ene37915 0.4 1016143
13 may, thu
thu1300:00+7ene369897 0.1 1015166
03:00+8ese61096100 3.7 1013850
06:00+8se6109343 1.8 1014711
09:00+9se5884100 1.9 1015790
12:00+11s477284 0.1 10141164
15:00+14sse5659100 0.3 10141612
18:00+13sse467135 0.1 1014846
21:00+9se34865 0.1 101557
14 may, fri
fri1400:00+8se3687100 0.0 101593
03:00+8ese3889100 0.0 1014147
06:00+9e41085100 0.0 1014237
09:00+13ese41183100 0.1 1012515
12:00+19se687091 0.0 10111137
15:00+20sse687195 0.8 10091251
18:00+19s4778100 0.9 1009573
21:00+15s349116 1.9 100948
15 may, sat
sat1500:00+13sse34958 0.7 100965
03:00+12s22945 0.7 100829
06:00+12sse259628 0.0 1009123
09:00+17s468034 0.0 1009498
12:00+19ssw467119 2.3 10091138
15:00+18sw5676100 5.5 10091020
18:00+17wsw477841 1.1 1010731
21:00+13sw39904 1.1 1011175
16 may, sun
sun1600:00+11ssw37944 0.0 1012142
03:00+10ssw379520 0.0 1013135
06:00+10ssw26950 0.0 1014162
09:00+16ssw36730 0.0 1014618
12:00+19sw355750 0.0 10141316
15:00+21sw345380 0.0 10141630
18:00+21s1361100 0.1 1013751
21:00+15ese2283100 0.2 101418